Rome, OR

1:21 PM MDT on July 24, 2017 (GMT -0600)
Rome State

Weather History for KREO - January, 2013

Change the Weather History Date:

Wednesday, January 2, 2013

  Actual Average Record
Temperature  
Mean Temperature 0 °F 28 °F  
Max Temperature 12 °F 37 °F 51 °F (1946)
Min Temperature -12 °F 19 °F -12 °F (2013)
Degree Days  
Heating Degree Days 65 37  
Month to date heating degree days 127 74  
Since 1 July heating degree days 2484 2821  
Moisture  
Dew Point -6 °F    
Average Humidity 77    
Maximum Humidity 91    
Minimum Humidity 63    
Precipitation  
Precipitation 0.00 in 0.02 in 0.50 in (1940)
Month to date precipitation 0.00 0.05  
Year to date precipitation 0.00 0.05  
Sea Level Pressure  
Sea Level Pressure 30.68 in    
Wind  
Wind Speed 3 mph (East)    
Max Wind Speed 9 mph    
Max Gust Speed 12 mph    
T = Trace of Precipitation, MM = Missing Value Source: NWS Daily Summary

Daily Weather History Graph

Daily Weather History Graph

Search for Another Location

Airport or City:

Trip Planner

Search our weather history database for the weather conditions in past years. The results will help you decide how hot, cold, wet, or windy it might be!

Date:

Astronomy

Jan. 02, 2013 Rise Set
Actual Time 7:21 AM PST 4:30 PM PST
Civil Twilight 6:49 AM PST 5:02 PM PST
Nautical Twilight 6:14 AM PST 5:37 PM PST
Astronomical Twilight 5:40 AM PST 6:11 PM PST
Moon 10:15 PM PST (1/2) 9:58 AM PST (1/2)
Length of Visible Light 10h 12m
Length of Day
9h 08m
Waning Gibbous, 74% of the Moon is Illuminated
Jan 2
Waning Gibbous
Jan 4
Last Quarter
Jan 11
New
Jan 18
First Quarter
Jan 26
Full

Hourly Weather History & Observations

Time (PST) Temp. Windchill Dew Point Humidity Pressure Visibility Wind Dir Wind Speed Gust Speed Precip Events Conditions
12:52 AM -2.9 °F -11.2 °F -6.0 °F 87% 30.63 in - South 3.5 mph - N/A   Unknown
1:52 AM -7.1 °F -15.9 °F -9.9 °F 87% 30.67 in - NNE 3.5 mph - N/A   Unknown
2:52 AM -7.1 °F - -11.9 °F 79% 30.66 in - Calm Calm - N/A   Unknown
3:52 AM -7.1 °F -18.1 °F -11.0 °F 83% 30.64 in - South 4.6 mph - N/A   Unknown
4:52 AM -6.0 °F -14.7 °F -9.9 °F 83% 30.67 in - SE 3.5 mph - N/A   Unknown
5:52 AM -7.1 °F -19.9 °F -11.0 °F 83% 30.70 in - NE 5.8 mph - N/A   Unknown
6:52 AM -9.9 °F - -16.1 °F 74% - - Calm Calm - N/A   Unknown
7:52 AM -7.1 °F - -13.0 °F 75% 30.74 in - Calm Calm - N/A   Unknown
8:52 AM -4.0 °F - -8.0 °F 83% 30.72 in - Calm Calm - N/A   Unknown
9:52 AM 3.0 °F - 1.0 °F 91% 30.71 in - Calm Calm - N/A   Unknown
10:52 AM 3.9 °F -6.9 °F -0.9 °F 80% 30.69 in - ESE 5.8 mph - N/A   Unknown
11:52 AM 9.0 °F 2.4 °F 1.0 °F 70% 30.66 in - ENE 3.5 mph - N/A   Unknown
12:52 PM 10.0 °F -0.9 °F 1.0 °F 67% 30.64 in - NE 6.9 mph - N/A   Unknown
1:52 PM 9.0 °F -2.2 °F 1.0 °F 70% 30.65 in - NE 6.9 mph - N/A   Unknown
2:52 PM 10.9 °F 1.4 °F 1.0 °F 64% 30.65 in - NE 5.8 mph - N/A   Unknown
3:52 PM 10.0 °F 1.8 °F -0.0 °F 64% 30.66 in - NE 4.6 mph - N/A   Unknown
4:52 PM 3.0 °F -8.0 °F -4.0 °F 73% 30.69 in - NE 5.8 mph - N/A   Unknown
5:52 PM -2.9 °F -17.7 °F -8.0 °F 79% 30.71 in - SE 8.1 mph - N/A   Unknown
6:52 PM -0.0 °F -7.9 °F -2.9 °F 88% 30.71 in - SE 3.5 mph - N/A   Unknown
7:52 PM -6.0 °F - -9.9 °F 83% 30.72 in - Calm Calm - N/A   Unknown
8:52 PM -7.1 °F - -11.0 °F 83% 30.71 in - Calm Calm - N/A   Unknown
9:52 PM -7.1 °F -15.9 °F -11.0 °F 83% 30.69 in - SSE 3.5 mph - N/A   Unknown
10:52 PM 1.9 °F - -2.0 °F 83% 30.64 in - Calm Calm - N/A   Unknown
11:52 PM 5.0 °F - 1.9 °F 87% 30.60 in - Calm Calm - N/A   Unknown